• In Netherlands
  • List of Countries
  • For 7 days
  • Water Temperature
  • Satellite Maps
  • Weather Map
  • Weather Widgets
  • user-avatar
    Login

    Hourly Weather Sunny Beach

    Today, 17 August, Thursday

    Time Temperature Precipitation Wind Pressure Humidity
    00:00 +22°C° 0.1 mm 5 mps 734 mmHg 61%
    01:00 +22°C° 0.1 mm 5 mps 734 mmHg 59%
    02:00 +21°C° 0.1 mm 4 mps 734 mmHg 57%
    03:00 +21°C° 0 mm 4 mps 734 mmHg 55%
    04:00 +21°C° 0 mm 5 mps 734 mmHg 53%
    05:00 +20°C° 0 mm 5 mps 734 mmHg 50%
    06:00 +22°C° 0 mm 5 mps 734 mmHg 46%
    07:00 +24°C° 0 mm 6 mps 734 mmHg 42%
    08:00 +27°C° 0 mm 6 mps 734 mmHg 38%
    09:00 +28°C° 0 mm 7 mps 734 mmHg 34%
    10:00 +30°C° 0 mm 7 mps 735 mmHg 30%
    11:00 +33°C° 0 mm 7 mps 735 mmHg 27%
    12:00 +34°C° 0 mm 7 mps 735 mmHg 26%
    13:00 +34°C° 0 mm 7 mps 735 mmHg 26%
    14:00 +35°C° 0 mm 7 mps 734 mmHg 25%
    15:00 +34°C° 0 mm 7 mps 734 mmHg 27%
    16:00 +33°C° 0 mm 7 mps 734 mmHg 28%
    17:00 +32°C° 0 mm 6 mps 734 mmHg 30%
    18:00 +29°C° 0 mm 5 mps 734 mmHg 40%
    19:00 +27°C° 0 mm 4 mps 734 mmHg 49%
    20:00 +24°C° 0 mm 3 mps 735 mmHg 59%
    21:00 +24°C° 0 mm 3 mps 735 mmHg 60%
    22:00 +22°C° 0 mm 3 mps 735 mmHg 61%
    23:00 +21°C° 0 mm 3 mps 735 mmHg 62%

    Tomorrow, 18 August, Friday

    Time Temperature Precipitation Wind Pressure Humidity
    00:00 +21°C° 0 mm 3 mps 735 mmHg 59%
    01:00 +21°C° 0 mm 3 mps 735 mmHg 55%
    02:00 +21°C° 0 mm 3 mps 734 mmHg 52%
    03:00 +20°C° 0 mm 4 mps 734 mmHg 49%
    04:00 +20°C° 0 mm 4 mps 734 mmHg 47%
    05:00 +20°C° 0 mm 4 mps 734 mmHg 45%
    06:00 +22°C° 0 mm 4 mps 735 mmHg 40%
    07:00 +26°C° 0 mm 5 mps 735 mmHg 36%
    08:00 +28°C° 0 mm 5 mps 735 mmHg 32%
    09:00 +30°C° 0 mm 6 mps 736 mmHg 28%
    10:00 +32°C° 0 mm 6 mps 736 mmHg 25%
    11:00 +34°C° 0 mm 6 mps 736 mmHg 21%
    12:00 +35°C° 0 mm 6 mps 736 mmHg 21%
    13:00 +35°C° 0 mm 7 mps 736 mmHg 20%
    14:00 +35°C° 0 mm 7 mps 735 mmHg 20%
    15:00 +35°C° 0 mm 6 mps 735 mmHg 22%
    16:00 +34°C° 0 mm 5 mps 735 mmHg 23%
    17:00 +33°C° 0 mm 5 mps 735 mmHg 25%
    18:00 +30°C° 0 mm 4 mps 735 mmHg 32%
    19:00 +27°C° 0 mm 3 mps 736 mmHg 39%
    20:00 +25°C° 0 mm 2 mps 736 mmHg 45%
    21:00 +24°C° 0 mm 2 mps 736 mmHg 52%
    22:00 +23°C° 0 mm 2 mps 736 mmHg 58%
    23:00 +21°C° 0 mm 2 mps 736 mmHg 65%

    Day after tomorrow, 19 August, Saturday

    Time Temperature Precipitation Wind Pressure Humidity
    00:00 +21°C° 0 mm 2 mps 736 mmHg 66%
    01:00 +21°C° 0 mm 2 mps 736 mmHg 68%
    02:00 +20°C° 0 mm 3 mps 735 mmHg 69%
    03:00 +20°C° 0 mm 3 mps 735 mmHg 67%
    04:00 +20°C° 0 mm 3 mps 735 mmHg 64%
    05:00 +20°C° 0 mm 3 mps 735 mmHg 61%
    06:00 +22°C° 0 mm 3 mps 735 mmHg 53%
    07:00 +25°C° 0 mm 3 mps 736 mmHg 45%
    08:00 +28°C° 0 mm 3 mps 736 mmHg 37%
    09:00 +30°C° 0 mm 4 mps 736 mmHg 32%
    10:00 +33°C° 0 mm 4 mps 736 mmHg 27%
    11:00 +35°C° 0 mm 4 mps 736 mmHg 22%
    12:00 +35°C° 0 mm 4 mps 736 mmHg 21%
    13:00 +36°C° 0 mm 4 mps 735 mmHg 20%
    14:00 +37°C° 0 mm 5 mps 735 mmHg 19%
    15:00 +36°C° 0 mm 5 mps 735 mmHg 21%
    16:00 +35°C° 0 mm 5 mps 735 mmHg 23%
    17:00 +35°C° 0 mm 5 mps 734 mmHg 25%
    18:00 +32°C° 0 mm 4 mps 735 mmHg 37%
    19:00 +28°C° 0 mm 3 mps 735 mmHg 48%
    20:00 +25°C° 0 mm 2 mps 735 mmHg 60%
    21:00 +25°C° 0 mm 2 mps 735 mmHg 64%
    22:00 +24°C° 0 mm 2 mps 735 mmHg 67%
    23:00 +23°C° 0 mm 2 mps 735 mmHg 71%

    20 August, Sunday

    Time Temperature Precipitation Wind Pressure Humidity
    00:00 +23°C° 0 mm 2 mps 735 mmHg 72%
    01:00 +21°C° 0 mm 2 mps 735 mmHg 73%
    02:00 +21°C° 0 mm 2 mps 734 mmHg 75%
    03:00 +21°C° 0 mm 2 mps 734 mmHg 74%
    04:00 +20°C° 0 mm 2 mps 734 mmHg 74%
    05:00 +20°C° 0 mm 2 mps 734 mmHg 74%
    06:00 +23°C° 0 mm 2 mps 734 mmHg 64%
    07:00 +25°C° 0 mm 3 mps 735 mmHg 55%
    08:00 +27°C° 0 mm 3 mps 735 mmHg 45%
    09:00 +29°C° 0 mm 3 mps 735 mmHg 39%
    10:00 +31°C° 0 mm 3 mps 735 mmHg 32%
    11:00 +34°C° 0 mm 4 mps 735 mmHg 26%
    12:00 +35°C° 0 mm 4 mps 735 mmHg 24%
    13:00 +36°C° 0 mm 4 mps 735 mmHg 22%
    14:00 +36°C° 0 mm 4 mps 734 mmHg 21%
    15:00 +36°C° 0 mm 4 mps 734 mmHg 21%
    16:00 +36°C° 0 mm 4 mps 734 mmHg 22%
    17:00 +35°C° 0 mm 4 mps 734 mmHg 23%
    18:00 +31°C° 0 mm 3 mps 734 mmHg 31%
    19:00 +28°C° 0 mm 3 mps 734 mmHg 38%
    20:00 +26°C° 0 mm 2 mps 734 mmHg 46%
    21:00 +25°C° 0 mm 2 mps 734 mmHg 50%
    22:00 +24°C° 0 mm 1 mps 734 mmHg 55%
    23:00 +23°C° 0 mm 1 mps 734 mmHg 59%

    21 August, Monday

    Time Temperature Precipitation Wind Pressure Humidity
    00:00 +23°C° 0 mm 2 mps 734 mmHg 62%
    01:00 +21°C° 0 mm 2 mps 734 mmHg 64%
    02:00 +21°C° 0 mm 2 mps 734 mmHg 67%
    03:00 +21°C° 0 mm 3 mps 734 mmHg 68%
    04:00 +20°C° 0 mm 3 mps 734 mmHg 69%
    05:00 +20°C° 0 mm 3 mps 734 mmHg 70%
    06:00 +21°C° 0 mm 4 mps 735 mmHg 67%
    07:00 +22°C° 0 mm 5 mps 735 mmHg 63%
    08:00 +25°C° 0 mm 5 mps 736 mmHg 60%
    09:00 +26°C° 0.1 mm 5 mps 736 mmHg 53%
    10:00 +28°C° 0.1 mm 5 mps 736 mmHg 47%
    11:00 +30°C° 0.1 mm 5 mps 736 mmHg 40%
    12:00 +32°C° 0 mm 5 mps 735 mmHg 35%
    13:00 +33°C° 0 mm 5 mps 735 mmHg 31%
    14:00 +34°C° 0 mm 5 mps 735 mmHg 27%
    15:00 +34°C° 0 mm 5 mps 735 mmHg 27%
    16:00 +33°C° 0 mm 5 mps 735 mmHg 28%
    17:00 +33°C° 0 mm 5 mps 734 mmHg 29%
    18:00 +30°C° 0 mm 3 mps 735 mmHg 36%
    19:00 +27°C° 0 mm 2 mps 735 mmHg 43%
    20:00 +25°C° 0 mm 1 mps 735 mmHg 50%
    21:00 +24°C° 0 mm 2 mps 735 mmHg 51%
    22:00 +24°C° 0 mm 2 mps 735 mmHg 51%
    23:00 +24°C° 0 mm 2 mps 735 mmHg 52%

    22 August, Tuesday

    Time Temperature Precipitation Wind Pressure Humidity
    00:00 +22°C° 0 mm 3 mps 735 mmHg 54%
    01:00 +22°C° 0 mm 3 mps 735 mmHg 56%
    02:00 +21°C° 0 mm 4 mps 735 mmHg 58%
    03:00 +21°C° 0 mm 4 mps 735 mmHg 61%
    04:00 +20°C° 0 mm 4 mps 735 mmHg 64%
    05:00 +19°C° 0 mm 4 mps 735 mmHg 67%
    06:00 +21°C° 0 mm 4 mps 735 mmHg 63%
    07:00 +22°C° 0 mm 4 mps 735 mmHg 58%
    08:00 +23°C° 0 mm 5 mps 736 mmHg 53%
    09:00 +26°C° 0 mm 5 mps 736 mmHg 47%
    10:00 +29°C° 0 mm 4 mps 736 mmHg 41%
    11:00 +32°C° 0 mm 4 mps 736 mmHg 35%
    12:00 +33°C° 0 mm 5 mps 735 mmHg 33%
    13:00 +34°C° 0 mm 5 mps 735 mmHg 31%
    14:00 +35°C° 0 mm 5 mps 734 mmHg 29%
    15:00 +34°C° 0 mm 5 mps 734 mmHg 30%
    16:00 +34°C° 0 mm 5 mps 734 mmHg 31%
    17:00 +33°C° 0 mm 4 mps 734 mmHg 32%
    18:00 +30°C° 0 mm 4 mps 734 mmHg 40%
    19:00 +27°C° 0 mm 3 mps 734 mmHg 49%
    20:00 +24°C° 0 mm 2 mps 734 mmHg 57%
    21:00 +24°C° 0 mm 2 mps 734 mmHg 61%
    22:00 +23°C° 0 mm 1 mps 734 mmHg 64%
    23:00 +22°C° 0 mm 1 mps 734 mmHg 67%
    Show more